20050429,000025,1241858,32.793256,-123.944016,4.3,15.904,32.897,41.447,2033.65,0.0,0.500,15.179,15.144, NaN,24.152,   NaN,15.35,1016.72,86.18,15.81,40.7,44.3,8.1,8.3,286.1,289.5,7.9,8.2,NaN, NaN,22.0,170.1,180.9,1114732826,1114732826,1,1.9,000025,000026,239.9,32.793265,-123.943866,1.10,NaN,NaN,15.908, NaN,NaN,NaN, NaN, NaN
20050429,000055,1241888,32.793108,-123.944075,4.5,15.900,32.897,41.443,2098.80,0.0,0.481,15.180,15.146, NaN,24.153,   NaN,15.33,1016.75,86.11,15.79,42.3,46.2,8.0,8.0,287.1,291.0,7.9,8.0,NaN, NaN,22.0,315.9,266.1,1114732856,1114732856,1,1.1,000055,000056,241.5,32.793133,-123.943928,0.60,NaN,NaN,15.904, NaN,NaN,NaN, NaN, NaN
20050429,000125,1241918,32.792978,-123.944135,4.5,15.903,32.897,41.446,2142.12,0.0,0.500,15.184,15.149, NaN,24.152,   NaN,15.38,1016.66,86.28,15.81,46.0,48.4,7.8,7.2,289.3,291.7,7.8,7.2,NaN, NaN,23.9,172.7,164.4,1114732886,1114732886,1,3.3,000085,000086,236.5,32.792986,-123.943983,1.08,NaN,NaN,15.907, NaN,NaN,NaN, NaN, NaN
20050429,000155,1241948,32.792795,-123.944268,4.6,15.897,32.900,41.445,1875.53,0.0,0.481,15.184,15.151, NaN,24.156,   NaN,15.35,1016.70,86.15,15.80,43.5,45.6,8.0,7.4,285.7,288.1,7.9,7.4,NaN, NaN,20.4,253.7,242.9,1114732916,1114732916,1,1.5,000115,000116,236.7,32.792828,-123.944130,1.24,NaN,NaN,15.901, NaN,NaN,NaN, NaN, NaN
20050429,000225,1241978,32.792613,-123.944418,4.6,15.895,32.902,41.444,2029.48,0.0,0.500,15.179,15.145, NaN,24.158,   NaN,15.33,1016.72,86.30,15.80,41.2,46.7,8.4,7.8,283.6,289.8,8.2,7.7,NaN, NaN,21.3,172.6,200.4,1114732946,1114732946,1,1.8,000145,000146,239.8,32.792633,-123.944275,1.20,NaN,NaN,15.899, NaN,NaN,NaN, NaN, NaN
20050429,000255,1242008,32.792475,-123.944556,4.4,15.895,32.901,41.443,2107.55,0.0,0.481,15.175,15.137, NaN,24.157,   NaN,15.33,1016.66,86.20,15.80,43.6,46.6,8.6,7.8,288.0,291.6,8.3,7.6,NaN, NaN,22.0,195.8,215.9,1114732976,1114732976,1,1.6,000175,000176,242.0,32.792470,-123.944410,1.37,NaN,NaN,15.899, NaN,NaN,NaN, NaN, NaN
20050429,000325,1242038,32.792300,-123.944708,4.3,15.896,32.896,41.439,2139.89,0.0,0.500,15.169,15.133, NaN,24.153,   NaN,15.34,1016.74,86.20,15.81,42.9,42.9,8.5,8.2,289.8,289.9,8.3,8.0,NaN, NaN,22.6,158.3,205.2,1114733006,1114733006,1,1.8,000205,000206,242.7,32.792311,-123.944565,1.25,NaN,NaN,15.900, NaN,NaN,NaN, NaN, NaN
20050429,000355,1242068,32.792140,-123.944853,4.3,15.895,32.896,41.438,2073.89,0.0,0.538,15.167,15.128, NaN,24.154,   NaN,15.36,1016.74,86.20,15.81,43.1,44.6,8.3,8.0,289.1,290.7,8.0,7.8,NaN, NaN,21.7,275.4,242.3,1114733036,1114733036,1,1.5,000235,000236,238.2,32.792158,-123.944716,1.34,NaN,NaN,15.899, NaN,NaN,NaN, NaN, NaN
20050429,000425,1242098,32.791965,-123.944995,4.4,15.895,32.897,41.439,2116.82,0.0,0.538,15.160,15.127, NaN,24.154,   NaN,15.35,1016.71,86.17,15.81,47.0,50.9,7.9,7.2,290.5,295.0,7.7,7.1,NaN, NaN,23.2,157.1,186.7,1114733066,1114733066,1,1.7,000265,000266,236.3,32.791985,-123.944851,1.46,NaN,NaN,15.899, NaN,NaN,NaN, NaN, NaN
20050429,000454,1242127,32.791776,-123.945138,4.4,15.888,32.901,41.437,2112.11,0.0,0.500,15.159,15.122, NaN,24.158,   NaN,15.39,1016.76,86.33,15.84,45.4,52.3,7.8,7.0,289.5,297.1,7.6,6.9,NaN, NaN,22.3,176.1,216.8,1114733095,1114733095,1,2.0,000295,000295,240.7,32.791806,-123.944995,1.34,NaN,NaN,15.892, NaN,NaN,NaN, NaN, NaN
20050429,000525,1242158,32.791613,-123.945318,4.6,15.888,32.900,41.436,1654.89,0.0,0.519,15.158,15.124, NaN,24.158,   NaN,15.40,1016.71,86.50,15.87,42.0,48.4,7.7,7.0,288.3,295.3,7.4,6.9,NaN, NaN,22.2,195.3,220.0,1114733126,1114733126,1,2.0,000325,000326,242.4,32.791630,-123.945173,1.35,NaN,NaN,15.892, NaN,NaN,NaN, NaN, NaN
20050429,000555,1242188,32.791448,-123.945501,4.6,15.878,32.907,41.435,2026.11,0.0,0.500,15.156,15.121, NaN,24.166,   NaN,15.43,1016.66,86.83,15.89,42.8,47.8,7.2,6.6,290.4,296.2,6.9,6.4,NaN, NaN,21.3,307.3,252.5,1114733156,1114733156,1,1.6,000355,000356,242.5,32.791475,-123.945363,1.55,NaN,NaN,15.882, NaN,NaN,NaN, NaN, NaN
20050429,000625,1242218,32.791275,-123.945683,4.5,15.871,32.911,41.431,2085.03,0.0,0.500,15.156,15.124, NaN,24.170,   NaN,15.46,1016.76,86.84,15.95,40.9,45.3,6.9,6.8,289.4,294.3,6.6,6.5,NaN, NaN,21.5,236.0,243.0,1114733186,1114733186,1,1.3,000385,000386,241.2,32.791316,-123.945543,1.33,NaN,NaN,15.875, NaN,NaN,NaN, NaN, NaN
20050429,000654,1242247,32.791108,-123.945865,4.5,15.871,32.907,41.428,2090.45,0.0,0.500,15.158,15.125, NaN,24.167,   NaN,15.38,1016.66,86.79,15.91,39.0,42.3,7.3,7.6,286.9,290.0,6.9,7.2,NaN, NaN,21.0,245.2,213.3,1114733215,1114733215,1,2.0,000415,000415,241.9,32.791151,-123.945710,1.28,NaN,NaN,15.875, NaN,NaN,NaN, NaN, NaN
20050429,000725,1242278,32.790948,-123.946030,4.2,15.866,32.907,41.423,2105.66,0.0,0.500,15.157,15.122, NaN,24.168,   NaN,15.34,1016.77,87.00,15.87,41.8,44.6,7.6,7.6,288.2,291.0,7.3,7.3,NaN, NaN,22.6,216.7,205.6,1114733246,1114733246,1,1.7,000445,000446,239.4,32.790973,-123.945890,1.43,NaN,NaN,15.870, NaN,NaN,NaN, NaN, NaN
20050429,000755,1242308,32.790791,-123.946201,4.4,15.866,32.907,41.422,2100.00,0.0,0.519,15.155,15.120, NaN,24.168,   NaN,15.36,1016.67,87.19,15.87,42.8,43.5,7.5,7.4,287.5,288.5,7.2,7.1,NaN, NaN,22.1,295.2,264.3,1114733276,1114733276,1,1.4,000475,000476,237.9,32.790826,-123.946058,1.35,NaN,NaN,15.870, NaN,NaN,NaN, NaN, NaN
20050429,000825,1242338,32.790596,-123.946350,4.5,15.866,32.903,41.418,2094.12,0.0,0.538,15.155,15.117, NaN,24.165,   NaN,15.32,1016.67,87.15,15.84,40.8,42.9,7.6,7.7,285.8,287.9,7.3,7.4,NaN, NaN,22.3,243.0,219.6,1114733306,1114733306,1,2.0,000505,000506,241.4,32.790645,-123.946211,1.13,NaN,NaN,15.870, NaN,NaN,NaN, NaN, NaN
20050429,000855,1242368,32.790455,-123.946495,4.5,15.860,32.905,41.415,2095.15,0.0,0.519,15.154,15.120, NaN,24.168,   NaN,15.30,1016.57,87.09,15.82,42.0,45.8,8.0,7.8,286.3,290.2,7.7,7.5,NaN, NaN,21.3,180.8,194.8,1114733336,1114733336,1,2.6,000535,000536,239.4,32.790493,-123.946358,1.32,NaN,NaN,15.864, NaN,NaN,NaN, NaN, NaN
20050429,000926,1242399,32.790280,-123.946628,4.3,15.819,32.937,41.413,2112.76,0.0,0.500,15.153,15.118, NaN,24.202,   NaN,15.28,1016.59,87.18,15.77,43.0,45.7,8.3,7.8,286.9,289.7,8.0,7.6,NaN, NaN,21.6,271.8,229.5,1114733366,1114733366,1,1.6,000565,000566,240.4,32.790318,-123.946500,1.33,NaN,NaN,15.823, NaN,NaN,NaN, NaN, NaN
20050429,000955,1242428,32.790135,-123.946796,4.4,15.773,32.972,41.409,1809.62,0.0,0.519,15.154,15.115, NaN,24.239,   NaN,15.34,1016.73,87.40,15.80,39.2,43.3,7.9,7.6,286.2,290.5,7.6,7.4,NaN, NaN,21.6,322.8,246.9,1114733396,1114733396,1,1.2,000595,000596,252.5,32.790130,-123.946646,1.14,NaN,NaN,15.777, NaN,NaN,NaN, NaN, NaN
20050429,001025,1242458,32.790016,-123.946966,4.5,15.794,32.951,41.405,1947.23,0.0,0.519,15.152,15.115, NaN,24.218,   NaN,15.35,1016.72,87.42,15.81,29.3,34.3,7.8,8.2,288.0,292.9,7.5,8.0,NaN, NaN,22.9,279.1,254.5,1114733426,1114733426,1,1.7,000625,000626,273.7,32.789958,-123.946825,1.06,NaN,NaN,15.798, NaN,NaN,NaN, NaN, NaN
20050429,001055,1242488,32.789978,-123.947095,4.4,15.736,32.987,41.391,2131.63,0.0,0.500,15.150,15.114, NaN,24.259,   NaN,15.36,1016.80,87.25,15.82,12.2,15.9,8.5,9.0,287.4,290.9,8.1,8.6,NaN, NaN,22.4,225.7,295.5,1114733456,1114733455,1,0.9,000655,000655,292.2,32.789885,-123.946968,0.60,NaN,NaN,15.740, NaN,NaN,NaN, NaN, NaN
20050429,001125,1242518,32.789973,-123.947150,4.5,15.724,32.984,41.377,2115.71,0.0,0.500,15.146,15.110, NaN,24.259,   NaN,15.37,1016.64,87.16,15.77,352.1,355.9,8.7,8.6,283.7,287.7,8.4,8.3,NaN, NaN,21.8,344.1,261.3,1114733486,1114733486,1,1.2,000685,000686,307.5,32.789860,-123.947053,0.09,NaN,NaN,15.728, NaN,NaN,NaN, NaN, NaN
20050429,001155,1242548,32.790101,-123.947273,4.3,15.724,32.970,41.361,2123.40,0.0,0.519,15.144,15.107, NaN,24.249,   NaN,15.37,1016.73,87.13,15.75,334.7,336.4,8.3,8.2,281.2,283.0,8.0,7.9,NaN, NaN,22.9,313.0,286.0,1114733516,1114733515,1,2.2,000715,000715,328.7,32.789966,-123.947221,1.52,NaN,NaN,15.728, NaN,NaN,NaN, NaN, NaN
20050429,001225,1242578,32.790533,-123.947493,4.6,15.707,32.973,41.348,2018.92,0.0,0.500,15.140,15.103, NaN,24.255,   NaN,15.46,1016.65,87.49,15.80,319.8,318.7,8.5,8.2,277.3,275.7,7.8,7.5,NaN, NaN,21.6,331.4,332.6,1114733546,1114733546,1,4.4,000745,000746,331.0,32.790408,-123.947461,3.63,NaN,NaN,15.711, NaN,NaN,NaN, NaN, NaN
20050429,001255,1242608,32.791350,-123.947973,4.4,15.703,32.965,41.335,2130.68,0.0,0.519,15.136,15.101, NaN,24.249,   NaN,15.43,1016.64,87.30,15.85,314.5,312.8,9.2,9.4,272.7,271.2,7.8,8.0,NaN, NaN,20.9,326.2,335.2,1114733576,1114733575,1,8.5,000775,000775,331.4,32.791210,-123.947925,6.86,NaN,NaN,15.707, NaN,NaN,NaN, NaN, NaN
20050429,001325,1242638,32.792393,-123.948598,4.3,15.702,32.951,41.319,2072.26,0.0,0.500,15.135,15.101, NaN,24.239,   NaN,15.42,1016.59,87.42,15.86,318.7,318.9,10.1,10.9,271.4,273.5,7.7,8.5,NaN, NaN,20.7,323.7,325.9,1114733606,1114733606,1,8.9,000805,000806,332.4,32.792273,-123.948588,8.52,NaN,NaN,15.706, NaN,NaN,NaN, NaN, NaN
20050429,001355,1242668,32.793571,-123.949305,4.4,15.698,32.943,41.306,1988.60,0.0,0.519,15.136,15.101, NaN,24.234,   NaN,15.32,1016.69,87.22,15.80,320.9,323.0,11.3,12.0,272.6,277.0,8.3,8.9,NaN, NaN,22.4,334.1,336.8,1114733636,1114733636,1,10.4,000835,000836,330.7,32.793470,-123.949281,9.19,NaN,NaN,15.702, NaN,NaN,NaN, NaN, NaN
20050429,001425,1242698,32.794741,-123.950073,4.3,15.689,32.941,41.295,1390.88,0.0,0.519,15.141,15.106, NaN,24.234,   NaN,15.33,1016.70,87.78,15.76,322.4,323.9,11.9,12.7,274.5,277.8,8.6,9.2,NaN, NaN,22.4,339.2,333.6,1114733666,1114733666,1,9.4,000865,000866,332.6,32.794646,-123.950050,9.71,NaN,NaN,15.693, NaN,NaN,NaN, NaN, NaN
20050429,001455,1242728,32.795965,-123.950828,4.3,15.690,32.933,41.287,1631.55,0.0,0.519,15.155,15.121, NaN,24.228,   NaN,15.31,1016.63,87.82,15.75,324.0,324.9,11.6,12.3,275.3,277.9,8.1,8.7,NaN, NaN,17.0,325.9,327.7,1114733696,1114733696,1,9.6,000895,000896,333.4,32.795836,-123.950823,9.51,NaN,NaN,15.694, NaN,NaN,NaN, NaN, NaN
20050429,001525,1242758,32.797168,-123.951595,4.4,15.691,32.923,41.276,1923.14,0.0,0.519,15.172,15.134, NaN,24.219,   NaN,15.26,1016.55,87.51,15.71,324.4,325.0,11.9,12.6,276.3,278.4,8.4,8.9,NaN, NaN,16.4,330.1,329.8,1114733726,1114733726,1,9.8,000925,000926,332.5,32.797040,-123.951580,9.58,NaN,NaN,15.695, NaN,NaN,NaN, NaN, NaN
20050429,001555,1242788,32.798365,-123.952346,4.4,15.690,32.916,41.268,2094.94,0.0,0.519,15.187,15.153, NaN,24.215,   NaN,15.26,1016.59,87.35,15.69,323.1,323.9,12.8,13.3,276.0,278.0,9.4,9.8,NaN, NaN,18.2,313.7,322.7,1114733756,1114733756,1,10.4,000955,000956,330.1,32.798236,-123.952338,9.50,NaN,NaN,15.694, NaN,NaN,NaN, NaN, NaN
20050429,001626,1242819,32.799508,-123.953115,4.5,15.694,32.908,41.263,2088.87,0.0,0.519,15.203,15.166, NaN,24.208,   NaN,15.34,1016.77,87.46,15.72,322.6,324.7,12.8,13.2,275.8,279.2,9.4,9.7,NaN, NaN,17.5,324.6,329.0,1114733786,1114733786,1,9.3,000985,000986,331.5,32.799381,-123.953086,9.05,NaN,NaN,15.698, NaN,NaN,NaN, NaN, NaN
20050429,001655,1242848,32.800655,-123.953818,4.5,15.707,32.894,41.259,1848.66,0.0,0.500,15.213,15.179, NaN,24.194,   NaN,15.37,1016.53,87.23,15.76,324.2,325.4,12.0,12.7,277.0,279.9,8.6,9.1,NaN, NaN,18.5,328.8,329.5,1114733816,1114733816,1,9.6,001015,001016,331.8,32.800531,-123.953801,9.09,NaN,NaN,15.711, NaN,NaN,NaN, NaN, NaN
20050429,001725,1242878,32.801840,-123.954555,4.3,15.721,32.877,41.253,2048.14,0.0,0.519,15.225,15.190, NaN,24.177,   NaN,15.32,1016.74,87.04,15.73,324.0,325.2,12.2,12.8,277.4,280.2,8.8,9.2,NaN, NaN,17.6,336.4,336.1,1114733846,1114733846,1,10.4,001045,001046,331.7,32.801720,-123.954541,9.50,NaN,NaN,15.725, NaN,NaN,NaN, NaN, NaN
20050429,001755,1242908,32.803000,-123.955328,4.5,15.742,32.859,41.252,2043.09,0.0,0.519,15.231,15.199, NaN,24.159,   NaN,15.36,1016.66,87.11,15.74,324.4,325.7,12.4,12.7,277.8,280.0,8.9,9.1,NaN, NaN,16.7,334.8,331.8,1114733876,1114733876,1,9.7,001075,001076,331.5,32.802886,-123.955308,9.56,NaN,NaN,15.746, NaN,NaN,NaN, NaN, NaN
20050429,001825,1242938,32.804181,-123.956096,4.4,15.754,32.850,41.253,1979.01,0.0,0.538,15.237,15.204, NaN,24.149,   NaN,15.35,1016.66,86.79,15.76,323.7,326.1,12.1,12.4,276.0,279.7,8.7,8.7,NaN, NaN,17.7,333.0,329.4,1114733906,1114733906,1,9.7,001105,001106,331.9,32.804075,-123.956076,9.77,NaN,NaN,15.758, NaN,NaN,NaN, NaN, NaN
20050429,001855,1242968,32.805361,-123.956840,4.3,15.762,32.849,41.260,1168.84,0.0,0.519,15.243,15.210, NaN,24.147,   NaN,15.33,1016.60,87.00,15.70,324.6,326.4,12.4,12.6,277.7,280.5,8.9,8.9,NaN, NaN,17.5,332.8,331.8,1114733936,1114733936,1,9.8,001135,001136,332.6,32.805241,-123.956823,9.66,NaN,NaN,15.766, NaN,NaN,NaN, NaN, NaN
20050429,001925,1242998,32.806536,-123.957556,4.5,15.771,32.848,41.267,1965.07,0.0,0.500,15.249,15.215, NaN,24.144,   NaN,15.27,1016.55,86.65,15.69,326.2,327.2,12.8,12.8,280.9,282.0,9.2,9.1,NaN, NaN,17.7,317.2,324.0,1114733966,1114733966,1,8.1,001165,001166,333.4,32.806395,-123.957551,9.27,NaN,NaN,15.775, NaN,NaN,NaN, NaN, NaN
20050429,001955,1243028,32.807625,-123.958271,4.4,15.779,32.850,41.277,2034.66,0.0,0.519,15.255,15.219, NaN,24.144,   NaN,15.30,1016.67,86.42,15.68,325.5,325.6,12.7,13.1,280.3,281.0,9.3,9.7,NaN, NaN,18.3,340.6,334.5,1114733996,1114733996,1,9.2,001195,001196,333.0,32.807508,-123.958250,9.01,NaN,NaN,15.783, NaN,NaN,NaN, NaN, NaN
20050429,002025,1243058,32.808775,-123.959010,4.4,15.786,32.850,41.283,1927.00,0.0,0.500,15.258,15.224, NaN,24.142,   NaN,15.33,1016.53,86.15,15.70,326.3,325.1,12.6,13.4,281.0,280.8,9.1,9.9,NaN, NaN,16.5,338.8,328.4,1114734026,1114734026,1,9.5,001225,001226,331.6,32.808640,-123.958961,9.17,NaN,NaN,15.790, NaN,NaN,NaN, NaN, NaN
20050429,002056,1243089,32.809938,-123.959761,4.5,15.791,32.854,41.293,1960.36,0.0,0.519,15.260,15.228, NaN,24.144,   NaN,15.36,1016.58,86.09,15.71,324.9,326.3,12.4,13.1,278.3,281.3,9.0,9.5,NaN, NaN,17.1,333.2,330.4,1114734056,1114734056,1,9.2,001255,001256,333.5,32.809800,-123.959736,9.50,NaN,NaN,15.795, NaN,NaN,NaN, NaN, NaN
20050429,002125,1243118,32.811121,-123.960503,4.3,15.799,32.854,41.300,1968.75,0.0,0.576,15.263,15.229, NaN,24.143,   NaN,15.37,1016.72,86.01,15.75,325.2,326.9,12.4,12.8,277.9,280.9,8.8,9.1,NaN, NaN,17.1,325.3,325.9,1114734086,1114734086,1,9.5,001285,001286,331.8,32.810980,-123.960493,9.60,NaN,NaN,15.803, NaN,NaN,NaN, NaN, NaN
20050429,002155,1243148,32.812285,-123.961251,4.3,15.804,32.857,41.308,1937.73,0.0,0.538,15.263,15.230, NaN,24.143,   NaN,15.42,1016.77,86.08,15.80,326.2,327.3,12.7,12.8,280.2,281.8,9.1,9.2,NaN, NaN,16.7,310.0,319.4,1114734116,1114734116,1,9.9,001315,001316,330.9,32.812151,-123.961246,9.53,NaN,NaN,15.808, NaN,NaN,NaN, NaN, NaN
20050429,002225,1243178,32.813430,-123.962000,4.4,15.807,32.858,41.312,1616.42,0.0,0.538,15.263,15.230, NaN,24.144,   NaN,15.34,1016.80,85.98,15.74,322.5,325.0,12.4,12.9,275.0,279.1,9.1,9.4,NaN, NaN,18.8,323.8,330.0,1114734146,1114734146,1,10.2,001345,001346,331.4,32.813308,-123.961981,9.46,NaN,NaN,15.811, NaN,NaN,NaN, NaN, NaN
20050429,002255,1243208,32.814620,-123.962748,4.4,15.809,32.865,41.322,1912.33,0.0,0.519,15.263,15.231, NaN,24.148,   NaN,15.38,1016.72,86.34,15.76,322.7,324.0,12.2,12.5,275.0,277.3,8.8,9.1,NaN, NaN,16.5,330.9,329.5,1114734176,1114734176,1,9.6,001375,001376,331.2,32.814496,-123.962731,9.58,NaN,NaN,15.813, NaN,NaN,NaN, NaN, NaN
20050429,002325,1243238,32.815786,-123.963451,4.6,15.813,32.867,41.328,2019.43,0.0,0.519,15.263,15.230, NaN,24.150,   NaN,15.41,1016.69,86.29,15.81,326.0,325.6,11.9,12.2,278.4,278.7,8.3,8.7,NaN, NaN,18.3,333.5,333.7,1114734206,1114734206,1,9.1,001405,001406,332.2,32.815661,-123.963440,9.30,NaN,NaN,15.817, NaN,NaN,NaN, NaN, NaN
20050429,002355,1243268,32.816948,-123.964150,4.7,15.816,32.868,41.332,2062.79,0.0,0.519,15.263,15.231, NaN,24.150,   NaN,15.38,1016.68,86.29,15.81,325.7,326.3,12.2,12.5,278.9,280.1,8.8,9.0,NaN, NaN,16.9,326.5,332.1,1114734236,1114734236,1,8.7,001435,001436,330.1,32.816816,-123.964140,9.23,NaN,NaN,15.820, NaN,NaN,NaN, NaN, NaN
20050429,002426,1243299,32.818121,-123.964926,4.8,15.828,32.862,41.336,2060.03,0.0,0.519,15.268,15.232, NaN,24.142,   NaN,15.40,1016.71,86.49,15.79,325.7,326.9,12.5,12.4,278.9,280.3,8.9,8.8,NaN, NaN,17.6,339.5,336.4,1114734266,1114734266,1,10.4,001465,001466,330.9,32.818003,-123.964906,9.44,NaN,NaN,15.832, NaN,NaN,NaN, NaN, NaN
20050429,002455,1243328,32.819271,-123.965683,4.6,15.846,32.854,41.344,1577.19,0.0,0.538,15.264,15.232, NaN,24.132,   NaN,15.37,1016.60,86.57,15.80,325.6,326.9,12.1,12.3,278.4,280.4,8.5,8.6,NaN, NaN,18.6,338.5,336.2,1114734296,1114734296,1,9.3,001495,001496,330.0,32.819156,-123.965648,9.48,NaN,NaN,15.850, NaN,NaN,NaN, NaN, NaN
20050429,002526,1243359,32.820446,-123.966386,4.7,15.886,32.824,41.349,1512.01,0.0,0.500,15.262,15.230, NaN,24.100,   NaN,15.35,1016.77,87.03,15.76,324.9,326.5,11.7,12.3,276.7,280.2,8.2,8.7,NaN, NaN,17.3,325.1,330.1,1114734326,1114734326,1,9.8,001525,001526,331.4,32.820318,-123.966375,9.06,NaN,NaN,15.890, NaN,NaN,NaN, NaN, NaN
20050429,002555,1243388,32.821601,-123.967086,4.4,15.902,32.820,41.359,1936.16,0.0,0.500,15.260,15.226, NaN,24.093,   NaN,15.33,1016.72,86.84,15.77,324.2,325.4,11.8,12.4,276.3,279.2,8.4,8.9,NaN, NaN,17.3,327.6,332.5,1114734356,1114734356,1,9.6,001555,001556,329.9,32.821473,-123.967070,9.41,NaN,NaN,15.906, NaN,NaN,NaN, NaN, NaN
20050429,002626,1243419,32.822723,-123.967821,4.4,15.930,32.807,41.369,1682.49,0.0,0.519,15.255,15.220, NaN,24.077,   NaN,15.34,1016.74,87.05,15.76,324.4,325.6,11.9,12.1,277.1,279.2,8.6,8.6,NaN, NaN,18.1,331.4,330.6,1114734386,1114734386,1,9.8,001585,001586,333.1,32.822603,-123.967808,9.26,NaN,NaN,15.934, NaN,NaN,NaN, NaN, NaN
20050429,002655,1243448,32.823871,-123.968550,4.6,15.948,32.805,41.384,2037.18,0.0,0.500,15.251,15.216, NaN,24.071,   NaN,15.29,1016.49,86.78,15.72,326.2,327.4,12.0,12.0,279.3,280.8,8.5,8.3,NaN, NaN,16.0,340.2,334.3,1114734416,1114734416,1,9.2,001615,001616,331.4,32.823776,-123.968521,9.46,NaN,NaN,15.952, NaN,NaN,NaN, NaN, NaN
20050429,002725,1243478,32.825041,-123.969271,4.5,15.954,32.816,41.402,2008.95,0.0,0.519,15.247,15.215, NaN,24.079,   NaN,15.33,1016.77,86.94,15.71,328.0,328.3,12.1,12.0,281.0,280.9,8.5,8.3,NaN, NaN,15.4,333.0,335.1,1114734446,1114734446,1,9.8,001645,001646,330.5,32.824951,-123.969245,9.28,NaN,NaN,15.958, NaN,NaN,NaN, NaN, NaN
20050429,002756,1243509,32.826215,-123.970028,4.6,15.961,32.824,41.418,2002.56,0.0,0.519,15.246,15.213, NaN,24.083,   NaN,15.37,1016.64,86.85,15.74,327.4,328.5,12.2,11.6,280.2,280.1,8.6,8.0,NaN, NaN,15.2,335.2,334.8,1114734476,1114734476,1,10.0,001675,001676,330.4,32.826135,-123.969998,9.52,NaN,NaN,15.965, NaN,NaN,NaN, NaN, NaN
20050429,002825,1243538,32.827386,-123.970776,4.7,15.960,32.839,41.433,1995.26,0.0,0.519,15.244,15.212, NaN,24.095,   NaN,15.42,1016.75,86.93,15.78,326.3,328.9,12.1,11.5,278.5,280.3,8.6,7.8,NaN, NaN,16.9,341.0,338.9,1114734506,1114734506,1,9.7,001705,001706,331.0,32.827303,-123.970741,9.38,NaN,NaN,15.964, NaN,NaN,NaN, NaN, NaN
20050429,002855,1243568,32.828581,-123.971523,4.8,15.957,32.855,41.449,1989.68,0.0,0.519,15.242,15.209, NaN,24.108,   NaN,15.39,1016.66,86.81,15.80,327.3,329.3,12.1,11.6,280.0,281.5,8.4,7.8,NaN, NaN,16.0,326.6,329.6,1114734536,1114734536,1,9.5,001735,001736,331.5,32.828488,-123.971500,9.46,NaN,NaN,15.961, NaN,NaN,NaN, NaN, NaN
20050429,002925,1243598,32.829746,-123.972245,4.4,15.955,32.863,41.456,1967.43,0.0,0.538,15.242,15.210, NaN,24.115,   NaN,15.34,1016.84,86.74,15.73,326.2,328.1,12.2,12.0,278.8,280.7,8.7,8.4,NaN, NaN,16.5,335.7,335.2,1114734566,1114734566,1,9.8,001765,001766,330.9,32.829660,-123.972211,9.46,NaN,NaN,15.959, NaN,NaN,NaN, NaN, NaN
20050429,002955,1243628,32.830895,-123.972956,4.5,15.956,32.870,41.466,2003.87,0.0,0.538,15.242,15.206, NaN,24.120,   NaN,15.36,1016.62,86.85,15.76,328.2,329.0,12.1,11.8,281.6,281.8,8.5,8.1,NaN, NaN,17.4,329.4,332.2,1114734596,1114734596,1,10.2,001795,001796,331.5,32.830810,-123.972926,9.27,NaN,NaN,15.960, NaN,NaN,NaN, NaN, NaN
20050429,003025,1243658,32.832083,-123.973691,4.5,15.955,32.875,41.470,2014.95,0.0,0.519,15.241,15.206, NaN,24.124,   NaN,15.38,1016.71,86.75,15.75,327.0,328.3,12.4,12.3,280.1,281.6,8.8,8.6,NaN, NaN,16.5,343.4,340.1,1114734626,1114734626,1,10.0,001825,001826,329.9,32.832000,-123.973660,9.68,NaN,NaN,15.959, NaN,NaN,NaN, NaN, NaN
20050429,003056,1243689,32.833250,-123.974430,4.3,15.957,32.879,41.477,1713.86,0.0,0.500,15.238,15.205, NaN,24.126,   NaN,15.36,1016.68,86.59,15.73,326.3,327.1,13.6,12.8,280.4,280.9,10.0,9.2,NaN, NaN,17.6,341.0,337.4,1114734656,1114734656,1,9.7,001855,001856,331.2,32.833160,-123.974390,9.54,NaN,NaN,15.961, NaN,NaN,NaN, NaN, NaN
20050429,003125,1243718,32.834391,-123.975151,4.8,15.953,32.887,41.481,1429.33,0.0,0.519,15.236,15.203, NaN,24.133,   NaN,15.33,1016.64,86.87,15.71,327.0,327.5,13.3,12.7,280.5,280.7,9.7,9.1,NaN, NaN,16.6,328.6,331.6,1114734686,1114734686,1,9.2,001885,001886,331.0,32.834300,-123.975120,9.36,NaN,NaN,15.957, NaN,NaN,NaN, NaN, NaN
20050429,003155,1243748,32.835568,-123.975871,4.6,15.952,32.886,41.479,2001.63,0.0,0.500,15.233,15.200, NaN,24.132,   NaN,15.33,1016.86,86.61,15.74,326.1,327.1,12.1,12.6,278.3,280.1,8.7,9.0,NaN, NaN,17.1,337.4,335.4,1114734716,1114734716,1,8.9,001915,001916,331.1,32.835468,-123.975835,9.36,NaN,NaN,15.956, NaN,NaN,NaN, NaN, NaN
20050429,003225,1243778,32.836710,-123.976563,4.6,15.955,32.886,41.482,1826.36,0.0,0.519,15.229,15.195, NaN,24.132,   NaN,15.40,1016.82,86.73,15.77,328.3,328.0,11.9,11.7,281.0,279.6,8.3,8.1,NaN, NaN,15.8,337.3,333.9,1114734746,1114734746,1,9.4,001945,001946,331.2,32.836608,-123.976533,9.02,NaN,NaN,15.959, NaN,NaN,NaN, NaN, NaN
20050429,003255,1243808,32.837880,-123.977295,4.6,15.950,32.891,41.483,1851.65,0.0,0.519,15.225,15.187, NaN,24.137,   NaN,15.43,1016.76,86.83,15.81,329.4,329.5,11.6,10.8,281.5,279.3,7.9,7.3,NaN, NaN,16.8,326.4,330.7,1114734776,1114734776,1,10.1,001975,001976,331.4,32.837781,-123.977275,9.72,NaN,NaN,15.954, NaN,NaN,NaN, NaN, NaN
20050429,003326,1243839,32.839116,-123.978055,4.6,15.953,32.890,41.485,1427.99,0.0,0.538,15.219,15.184, NaN,24.136,   NaN,15.38,1016.81,86.77,15.78,327.6,329.0,11.8,11.6,279.2,280.0,8.3,7.9,NaN, NaN,16.7,341.7,339.7,1114734806,1114734806,1,10.0,002006,002006,330.0,32.838971,-123.978005,9.51,NaN,NaN,15.957, NaN,NaN,NaN, NaN, NaN
20050429,003355,1243868,32.840211,-123.978783,4.6,15.952,32.891,41.485,1729.88,0.0,0.519,15.215,15.180, NaN,24.137,   NaN,15.32,1016.74,86.94,15.73,326.7,328.6,11.9,11.9,278.3,280.6,8.4,8.3,NaN, NaN,17.4,343.1,341.3,1114734836,1114734836,1,9.8,002035,002036,330.9,32.840116,-123.978753,9.37,NaN,NaN,15.956, NaN,NaN,NaN, NaN, NaN
20050429,003425,1243898,32.841368,-123.979526,4.8,15.952,32.892,41.486,1766.95,0.0,0.519,15.210,15.172, NaN,24.137,   NaN,15.34,1016.68,86.91,15.74,327.9,329.7,12.0,11.4,280.2,281.0,8.4,7.8,NaN, NaN,15.5,318.5,325.0,1114734866,1114734866,1,9.4,002065,002066,329.7,32.841273,-123.979503,9.34,NaN,NaN,15.956, NaN,NaN,NaN, NaN, NaN
20050429,003456,1243929,32.842530,-123.980250,4.5,15.943,32.898,41.484,1832.30,0.0,0.538,15.207,15.168, NaN,24.144,   NaN,15.32,1016.69,86.85,15.72,327.5,329.7,12.5,12.0,281.2,282.9,8.9,8.3,NaN, NaN,17.8,351.4,341.8,1114734896,1114734896,1,9.7,002095,002096,330.9,32.842440,-123.980216,9.52,NaN,NaN,15.947, NaN,NaN,NaN, NaN, NaN
20050429,003525,1243958,32.843690,-123.981011,4.6,15.941,32.901,41.486,1791.06,0.0,0.519,15.203,15.166, NaN,24.147,   NaN,15.34,1016.70,86.82,15.73,327.9,329.2,12.7,12.5,281.6,283.0,9.0,8.8,NaN, NaN,17.4,336.9,334.3,1114734926,1114734926,1,9.5,002125,002126,331.4,32.843603,-123.980980,9.73,NaN,NaN,15.945, NaN,NaN,NaN, NaN, NaN
20050429,003555,1243988,32.844868,-123.981743,4.5,15.933,32.905,41.484,1788.09,0.0,0.519,15.199,15.161, NaN,24.152,   NaN,15.35,1016.82,86.78,15.73,328.4,328.9,12.5,12.3,281.8,282.0,8.8,8.6,NaN, NaN,16.9,326.0,330.6,1114734956,1114734956,1,9.6,002155,002156,330.9,32.844773,-123.981720,9.77,NaN,NaN,15.937, NaN,NaN,NaN, NaN, NaN